Time,TemperatureF,DewpointF,PressureIn,WindDirection,WindDirectionDegrees,WindSpeedMPH,WindSpeedGustMPH,Humidity,HourlyPrecipIn,Conditions,Clouds,dailyrainin,SoftwareType,DateUTC
2013-08-19 00:02:00,71.8,58.1,0.00,NNW,338,0.4,3.8,62,0.00,,,0.00,WUHU216HW,2013-08-19 07:02:00,
2013-08-19 00:07:00,71.8,58.5,0.00,NNE,23,3.4,3.6,63,0.00,,,0.00,WUHU216HW,2013-08-19 07:07:00,
2013-08-19 00:12:00,71.6,58.3,0.00,NNW,338,4.3,4.3,63,0.00,,,0.00,WUHU216HW,2013-08-19 07:12:00,
2013-08-19 00:17:00,71.5,59.0,0.00,WNW,293,1.6,4.3,65,0.00,,,0.00,WUHU216HW,2013-08-19 07:17:00,
2013-08-19 00:22:00,71.3,58.9,0.00,North,0,0.7,3.4,65,0.00,,,0.00,WUHU216HW,2013-08-19 07:22:00,
2013-08-19 00:27:00,70.9,58.5,0.00,NNW,338,1.3,3.4,65,0.00,,,0.00,WUHU216HW,2013-08-19 07:27:00,
2013-08-19 00:32:00,70.7,58.8,0.00,NNW,338,2.2,4.7,66,0.00,,,0.00,WUHU216HW,2013-08-19 07:32:00,
2013-08-19 00:37:00,70.4,58.9,0.00,NNW,338,1.1,4.7,67,0.00,,,0.00,WUHU216HW,2013-08-19 07:37:00,
2013-08-19 00:42:00,70.2,58.7,0.00,SW,225,6.3,6.3,67,0.00,,,0.00,WUHU216HW,2013-08-19 07:42:00,
2013-08-19 00:47:00,70.0,58.5,0.00,NNW,338,2.5,6.3,67,0.00,,,0.00,WUHU216HW,2013-08-19 07:47:00,
2013-08-19 00:52:00,69.8,58.3,0.00,WSW,248,2.5,7.4,67,0.00,,,0.00,WUHU216HW,2013-08-19 07:52:00,
2013-08-19 00:57:00,69.7,58.6,0.00,SW,225,0.9,7.4,68,0.00,,,0.00,WUHU216HW,2013-08-19 07:57:00,
2013-08-19 01:02:00,69.5,58.9,0.00,NW,315,2.9,4.5,69,0.00,,,0.00,WUHU216HW,2013-08-19 08:02:00,
2013-08-19 01:07:00,69.3,58.7,0.00,NW,315,3.1,6.3,69,0.00,,,0.00,WUHU216HW,2013-08-19 08:07:00,
2013-08-19 01:12:00,69.1,59.0,0.00,NW,315,4.3,6.3,70,0.00,,,0.00,WUHU216HW,2013-08-19 08:12:00,
2013-08-19 01:17:00,69.1,59.0,0.00,NNW,338,6.9,6.9,70,0.00,,,0.00,WUHU216HW,2013-08-19 08:17:00,
2013-08-19 01:22:00,68.9,58.8,0.00,WNW,293,3.8,6.9,70,0.00,,,0.00,WUHU216HW,2013-08-19 08:22:00,
2013-08-19 01:27:00,68.8,58.6,0.00,NW,315,1.8,3.8,70,0.00,,,0.00,WUHU216HW,2013-08-19 08:27:00,
2013-08-19 01:32:00,68.8,58.1,0.00,NNW,338,0.7,3.6,69,0.00,,,0.00,WUHU216HW,2013-08-19 08:32:00,
2013-08-19 01:37:00,68.8,58.1,0.00,NNW,338,1.8,3.8,69,0.00,,,0.00,WUHU216HW,2013-08-19 08:37:00,
2013-08-19 01:42:00,68.6,58.9,0.00,West,270,4.0,4.0,71,0.00,,,0.00,WUHU216HW,2013-08-19 08:42:00,
2013-08-19 01:47:00,68.6,58.9,0.00,West,270,4.3,6.3,71,0.00,,,0.00,WUHU216HW,2013-08-19 08:47:00,
2013-08-19 01:52:00,68.4,58.7,0.00,North,0,2.0,6.3,71,0.00,,,0.00,WUHU216HW,2013-08-19 08:52:00,
2013-08-19 01:57:00,68.2,58.5,0.00,NNW,338,2.5,5.1,71,0.00,,,0.00,WUHU216HW,2013-08-19 08:57:00,
2013-08-19 02:02:00,68.2,58.2,0.00,West,270,1.6,5.1,70,0.00,,,0.00,WUHU216HW,2013-08-19 09:02:00,
2013-08-19 02:07:00,68.2,58.2,0.00,North,0,0.7,3.8,70,0.00,,,0.00,WUHU216HW,2013-08-19 09:07:00,
2013-08-19 02:12:00,68.2,58.2,0.00,North,0,0.2,1.8,70,0.00,,,0.00,WUHU216HW,2013-08-19 09:12:00,
2013-08-19 02:17:00,68.0,58.0,0.00,West,270,0.4,2.2,70,0.00,,,0.00,WUHU216HW,2013-08-19 09:17:00,
2013-08-19 02:22:00,68.0,58.0,0.00,NNW,338,0.4,2.7,70,0.00,,,0.00,WUHU216HW,2013-08-19 09:22:00,
2013-08-19 02:27:00,68.0,58.0,0.00,NNW,338,2.5,2.7,70,0.00,,,0.00,WUHU216HW,2013-08-19 09:27:00,
2013-08-19 02:32:00,68.0,58.0,0.00,NNW,338,2.5,2.5,70,0.00,,,0.00,WUHU216HW,2013-08-19 09:32:00,
2013-08-19 02:37:00,68.0,58.0,0.00,NNW,338,2.5,2.5,70,0.00,,,0.00,WUHU216HW,2013-08-19 09:37:00,
2013-08-19 02:42:00,67.7,58.0,0.00,NW,315,1.1,2.5,71,0.00,,,0.00,WUHU216HW,2013-08-19 09:42:00,
2013-08-19 02:47:00,67.3,58.0,0.00,NW,315,1.8,3.4,72,0.00,,,0.00,WUHU216HW,2013-08-19 09:47:00,
2013-08-19 02:52:00,67.3,58.4,0.00,NW,315,1.1,3.4,73,0.00,,,0.00,WUHU216HW,2013-08-19 09:52:00,
2013-08-19 02:57:00,67.1,58.2,0.00,NW,315,4.0,4.0,73,0.00,,,0.00,WUHU216HW,2013-08-19 09:57:00,
2013-08-19 03:02:00,67.0,58.1,0.00,WNW,293,4.7,4.9,73,0.00,,,0.00,WUHU216HW,2013-08-19 10:02:00,
2013-08-19 03:07:00,67.0,58.1,0.00,NNW,338,1.8,4.9,73,0.00,,,0.00,WUHU216HW,2013-08-19 10:07:00,
2013-08-19 03:12:00,67.0,58.4,0.00,NNW,338,5.4,5.4,74,0.00,,,0.00,WUHU216HW,2013-08-19 10:12:00,
2013-08-19 03:17:00,66.8,57.9,0.00,NW,315,2.7,6.0,73,0.00,,,0.00,WUHU216HW,2013-08-19 10:17:00,
2013-08-19 03:22:00,66.8,57.9,0.00,NW,315,0.2,6.0,73,0.00,,,0.00,WUHU216HW,2013-08-19 10:22:00,
2013-08-19 03:27:00,66.6,57.7,0.00,NNE,23,0.9,4.0,73,0.00,,,0.00,WUHU216HW,2013-08-19 10:27:00,
2013-08-19 03:32:00,66.6,57.7,0.00,NW,315,0.4,4.0,73,0.00,,,0.00,WUHU216HW,2013-08-19 10:32:00,
2013-08-19 03:37:00,66.6,58.1,0.00,North,0,0.4,2.7,74,0.00,,,0.00,WUHU216HW,2013-08-19 10:37:00,
2013-08-19 03:42:00,66.4,57.9,0.00,NW,315,1.1,2.5,74,0.00,,,0.00,WUHU216HW,2013-08-19 10:42:00,
2013-08-19 03:47:00,66.2,57.7,0.00,NNW,338,1.8,4.0,74,0.00,,,0.00,WUHU216HW,2013-08-19 10:47:00,
2013-08-19 03:52:00,66.2,58.1,0.00,WNW,293,4.7,4.9,75,0.00,,,0.00,WUHU216HW,2013-08-19 10:52:00,
2013-08-19 03:57:00,66.2,58.1,0.00,North,0,1.3,4.9,75,0.00,,,0.00,WUHU216HW,2013-08-19 10:57:00,
2013-08-19 04:02:00,66.1,57.9,0.00,NNW,338,1.1,4.7,75,0.00,,,0.00,WUHU216HW,2013-08-19 11:02:00,
2013-08-19 04:07:00,66.1,57.9,0.00,NW,315,1.1,2.9,75,0.00,,,0.00,WUHU216HW,2013-08-19 11:07:00,
2013-08-19 04:12:00,65.9,57.7,0.00,NNW,338,0.7,2.9,75,0.00,,,0.00,WUHU216HW,2013-08-19 11:12:00,
2013-08-19 04:17:00,65.9,57.3,0.00,West,270,0.7,3.1,74,0.00,,,0.00,WUHU216HW,2013-08-19 11:17:00,
2013-08-19 04:22:00,65.9,57.7,0.00,North,0,0.4,4.7,75,0.00,,,0.00,WUHU216HW,2013-08-19 11:22:00,
2013-08-19 04:27:00,65.9,57.7,0.00,East,90,0.4,4.7,75,0.00,,,0.00,WUHU216HW,2013-08-19 11:27:00,
2013-08-19 04:32:00,65.7,57.9,0.00,WNW,293,0.2,1.1,76,0.00,,,0.00,WUHU216HW,2013-08-19 11:32:00,
2013-08-19 04:37:00,65.7,57.9,0.00,NE,45,0.4,1.6,76,0.00,,,0.00,WUHU216HW,2013-08-19 11:37:00,
2013-08-19 04:42:00,65.5,58.2,0.00,NW,315,3.4,3.4,77,0.00,,,0.00,WUHU216HW,2013-08-19 11:42:00,
2013-08-19 04:47:00,65.5,58.2,0.00,NW,315,2.5,3.4,77,0.00,,,0.00,WUHU216HW,2013-08-19 11:47:00,
2013-08-19 04:52:00,65.5,58.2,0.00,NNE,23,1.1,2.5,77,0.00,,,0.00,WUHU216HW,2013-08-19 11:52:00,
2013-08-19 04:57:00,65.3,58.0,0.00,North,0,0.4,2.0,77,0.00,,,0.00,WUHU216HW,2013-08-19 11:57:00,
2013-08-19 05:02:00,65.2,57.8,0.00,WNW,293,3.4,3.4,77,0.00,,,0.00,WUHU216HW,2013-08-19 12:02:00,
2013-08-19 05:07:00,65.2,57.8,0.00,NNW,338,0.4,3.4,77,0.00,,,0.00,WUHU216HW,2013-08-19 12:07:00,
2013-08-19 05:12:00,65.0,57.6,0.00,ENE,68,0.9,1.1,77,0.00,,,0.00,WUHU216HW,2013-08-19 12:12:00,
2013-08-19 05:17:00,64.8,57.4,0.00,NNW,338,0.4,1.1,77,0.00,,,0.00,WUHU216HW,2013-08-19 12:17:00,
2013-08-19 05:22:00,64.8,57.4,0.00,NNW,338,0.7,1.6,77,0.00,,,0.00,WUHU216HW,2013-08-19 12:22:00,
2013-08-19 05:27:00,64.8,57.4,0.00,SE,135,1.6,1.6,77,0.00,,,0.00,WUHU216HW,2013-08-19 12:27:00,
2013-08-19 05:32:00,64.6,57.3,0.00,South,180,1.3,2.5,77,0.00,,,0.00,WUHU216HW,2013-08-19 12:32:00,
2013-08-19 05:37:00,64.6,57.3,0.00,SE,135,0.0,2.5,77,0.00,,,0.00,WUHU216HW,2013-08-19 12:37:00,
2013-08-19 05:42:00,64.6,57.3,0.00,SE,135,0.4,0.9,77,0.00,,,0.00,WUHU216HW,2013-08-19 12:42:00,
2013-08-19 05:47:00,64.4,57.1,0.00,WNW,293,0.0,2.5,77,0.00,,,0.00,WUHU216HW,2013-08-19 12:47:00,
2013-08-19 05:52:00,64.4,57.1,0.00,West,270,0.0,2.5,77,0.00,,,0.00,WUHU216HW,2013-08-19 12:52:00,
2013-08-19 05:57:00,64.6,57.3,0.00,SW,225,0.0,2.0,77,0.00,,,0.00,WUHU216HW,2013-08-19 12:57:00,
2013-08-19 06:02:00,64.4,57.1,0.00,ENE,68,0.0,2.0,77,0.00,,,0.00,WUHU216HW,2013-08-19 13:02:00,
2013-08-19 06:07:00,64.4,57.1,0.00,SW,225,0.4,3.8,77,0.00,,,0.00,WUHU216HW,2013-08-19 13:07:00,
2013-08-19 06:12:00,64.3,56.9,0.00,WSW,248,0.4,3.8,77,0.00,,,0.00,WUHU216HW,2013-08-19 13:12:00,
2013-08-19 06:17:00,64.1,56.7,0.00,SW,225,0.0,3.4,77,0.00,,,0.00,WUHU216HW,2013-08-19 13:17:00,
2013-08-19 06:22:00,64.1,56.7,0.00,NE,45,0.0,1.1,77,0.00,,,0.00,WUHU216HW,2013-08-19 13:22:00,
2013-08-19 06:27:00,64.1,57.1,0.00,SE,135,1.1,1.1,78,0.00,,,0.00,WUHU216HW,2013-08-19 13:27:00,
2013-08-19 06:32:00,64.1,57.1,0.00,SE,135,0.2,2.0,78,0.00,,,0.00,WUHU216HW,2013-08-19 13:32:00,
2013-08-19 06:37:00,64.1,56.7,0.00,NNE,23,0.2,2.0,77,0.00,,,0.00,WUHU216HW,2013-08-19 13:37:00,
2013-08-19 06:42:00,63.9,56.5,0.00,WNW,293,0.2,0.9,77,0.00,,,0.00,WUHU216HW,2013-08-19 13:42:00,
2013-08-19 06:47:00,63.9,56.9,0.00,West,270,2.0,2.0,78,0.00,,,0.00,WUHU216HW,2013-08-19 13:47:00,
2013-08-19 06:52:00,63.9,57.2,0.00,NW,315,0.9,2.5,79,0.00,,,0.00,WUHU216HW,2013-08-19 13:52:00,
2013-08-19 06:57:00,63.9,57.2,0.00,NNW,338,0.7,2.9,79,0.00,,,0.00,WUHU216HW,2013-08-19 13:57:00,
2013-08-19 07:02:00,64.1,57.4,0.00,North,0,1.1,2.9,79,0.00,,,0.00,WUHU216HW,2013-08-19 14:02:00,
2013-08-19 07:07:00,64.1,57.4,0.00,SW,225,0.4,1.8,79,0.00,,,0.00,WUHU216HW,2013-08-19 14:07:00,
2013-08-19 07:12:00,64.1,57.4,0.00,NNW,338,0.9,2.2,79,0.00,,,0.00,WUHU216HW,2013-08-19 14:12:00,
2013-08-19 07:17:00,64.1,57.4,0.00,West,270,2.5,2.9,79,0.00,,,0.00,WUHU216HW,2013-08-19 14:17:00,
2013-08-19 07:22:00,64.1,57.4,0.00,NNW,338,0.4,4.7,79,0.00,,,0.00,WUHU216HW,2013-08-19 14:22:00,
2013-08-19 07:27:00,64.1,57.1,0.00,ENE,68,0.4,4.7,78,0.00,,,0.00,WUHU216HW,2013-08-19 14:27:00,
2013-08-19 07:32:00,64.1,57.4,0.00,NNE,23,1.3,2.0,79,0.00,,,0.00,WUHU216HW,2013-08-19 14:32:00,
2013-08-19 07:37:00,64.3,57.2,0.00,NNE,23,0.2,3.4,78,0.00,,,0.00,WUHU216HW,2013-08-19 14:37:00,
2013-08-19 07:42:00,64.4,57.8,0.00,NNW,338,2.7,4.3,79,0.00,,,0.00,WUHU216HW,2013-08-19 14:42:00,
2013-08-19 07:47:00,64.4,57.8,0.00,West,270,2.5,4.3,79,0.00,,,0.00,WUHU216HW,2013-08-19 14:47:00,
2013-08-19 07:52:00,64.6,57.6,0.00,North,0,1.8,3.4,78,0.00,,,0.00,WUHU216HW,2013-08-19 14:52:00,
2013-08-19 07:57:00,64.6,57.6,0.00,NNE,23,2.5,6.9,78,0.00,,,0.00,WUHU216HW,2013-08-19 14:57:00,
2013-08-19 08:02:00,64.8,57.4,0.00,WNW,293,3.4,6.9,77,0.00,,,0.00,WUHU216HW,2013-08-19 15:02:00,
2013-08-19 08:07:00,65.2,57.8,0.00,South,180,1.1,3.4,77,0.00,,,0.00,WUHU216HW,2013-08-19 15:07:00,
2013-08-19 08:12:00,65.2,57.4,0.00,NNW,338,1.3,2.5,76,0.00,,,0.00,WUHU216HW,2013-08-19 15:12:00,
2013-08-19 08:17:00,65.5,57.8,0.00,NNW,338,2.5,5.1,76,0.00,,,0.00,WUHU216HW,2013-08-19 15:17:00,
2013-08-19 08:22:00,65.7,57.9,0.00,NNW,338,1.6,5.1,76,0.00,,,0.00,WUHU216HW,2013-08-19 15:22:00,
2013-08-19 08:27:00,65.9,58.1,0.00,NNE,23,1.3,4.9,76,0.00,,,0.00,WUHU216HW,2013-08-19 15:27:00,
2013-08-19 08:32:00,66.1,57.9,0.00,WNW,293,2.9,4.9,75,0.00,,,0.00,WUHU216HW,2013-08-19 15:32:00,
2013-08-19 08:37:00,66.2,58.1,0.00,West,270,2.2,4.5,75,0.00,,,0.00,WUHU216HW,2013-08-19 15:37:00,
2013-08-19 08:42:00,66.6,58.1,0.00,NW,315,3.1,6.0,74,0.00,,,0.00,WUHU216HW,2013-08-19 15:42:00,
2013-08-19 08:47:00,66.6,58.1,0.00,SW,225,1.3,6.0,74,0.00,,,0.00,WUHU216HW,2013-08-19 15:47:00,
2013-08-19 08:52:00,67.0,58.1,0.00,WNW,293,2.2,4.5,73,0.00,,,0.00,WUHU216HW,2013-08-19 15:52:00,
2013-08-19 08:57:00,67.1,58.2,0.00,South,180,1.1,7.4,73,0.00,,,0.00,WUHU216HW,2013-08-19 15:57:00,
2013-08-19 09:02:00,67.3,58.0,0.00,NW,315,4.5,7.4,72,0.00,,,0.00,WUHU216HW,2013-08-19 16:02:00,
2013-08-19 09:07:00,67.7,58.0,0.00,ENE,68,0.9,5.8,71,0.00,,,0.00,WUHU216HW,2013-08-19 16:07:00,
2013-08-19 09:12:00,67.9,59.0,0.00,South,180,2.2,5.8,73,0.00,,,0.00,WUHU216HW,2013-08-19 16:12:00,
2013-08-19 09:17:00,68.0,58.7,0.00,NNW,338,1.8,5.4,72,0.00,,,0.00,WUHU216HW,2013-08-19 16:17:00,
2013-08-19 09:22:00,68.4,58.7,0.00,South,180,4.5,7.2,71,0.00,,,0.00,WUHU216HW,2013-08-19 16:22:00,
2013-08-19 09:27:00,68.8,58.6,0.00,WSW,248,2.9,7.2,70,0.00,,,0.00,WUHU216HW,2013-08-19 16:27:00,
2013-08-19 09:32:00,68.8,58.6,0.00,NNW,338,0.7,5.8,70,0.00,,,0.00,WUHU216HW,2013-08-19 16:32:00,
2013-08-19 09:37:00,69.1,58.5,0.00,West,270,5.6,5.6,69,0.00,,,0.00,WUHU216HW,2013-08-19 16:37:00,
2013-08-19 09:42:00,69.3,58.7,0.00,NE,45,3.4,8.3,69,0.00,,,0.00,WUHU216HW,2013-08-19 16:42:00,
2013-08-19 09:47:00,69.5,58.9,0.00,NW,315,1.1,8.3,69,0.00,,,0.00,WUHU216HW,2013-08-19 16:47:00,
2013-08-19 09:52:00,70.0,58.5,0.00,NW,315,2.0,9.2,67,0.00,,,0.00,WUHU216HW,2013-08-19 16:52:00,
2013-08-19 09:57:00,70.0,58.5,0.00,West,270,2.5,9.2,67,0.00,,,0.00,WUHU216HW,2013-08-19 16:57:00,
2013-08-19 10:02:00,70.2,59.1,0.00,NW,315,1.6,6.9,68,0.00,,,0.00,WUHU216HW,2013-08-19 17:02:00,
2013-08-19 10:07:00,70.6,59.5,0.00,WNW,293,8.7,9.4,68,0.00,,,0.00,WUHU216HW,2013-08-19 17:07:00,
2013-08-19 10:12:00,70.9,59.4,0.00,North,0,4.3,9.4,67,0.00,,,0.00,WUHU216HW,2013-08-19 17:12:00,
2013-08-19 10:17:00,71.5,59.5,0.00,NW,315,6.3,8.7,66,0.00,,,0.00,WUHU216HW,2013-08-19 17:17:00,
2013-08-19 10:22:00,71.8,60.3,0.00,WSW,248,2.5,6.3,67,0.00,,,0.00,WUHU216HW,2013-08-19 17:22:00,
2013-08-19 10:27:00,72.0,60.0,0.00,WSW,248,4.0,8.3,66,0.00,,,0.00,WUHU216HW,2013-08-19 17:27:00,
2013-08-19 10:32:00,72.2,60.2,0.00,NW,315,1.1,8.3,66,0.00,,,0.00,WUHU216HW,2013-08-19 17:32:00,
2013-08-19 10:37:00,72.7,60.2,0.00,North,0,2.7,5.4,65,0.00,,,0.00,WUHU216HW,2013-08-19 17:37:00,
2013-08-19 10:42:00,73.4,60.0,0.00,NW,315,1.6,5.4,63,0.00,,,0.00,WUHU216HW,2013-08-19 17:42:00,
2013-08-19 10:47:00,73.4,59.6,0.00,NW,315,4.0,4.7,62,0.00,,,0.00,WUHU216HW,2013-08-19 17:47:00,
2013-08-19 10:52:00,74.0,59.7,0.00,SSW,203,4.3,6.9,61,0.00,,,0.00,WUHU216HW,2013-08-19 17:52:00,
2013-08-19 10:57:00,74.3,60.0,0.00,North,0,1.8,6.9,61,0.00,,,0.00,WUHU216HW,2013-08-19 17:57:00,
2013-08-19 11:02:00,74.9,59.6,0.00,NW,315,2.9,3.4,59,0.00,,,0.00,WUHU216HW,2013-08-19 18:02:00,
2013-08-19 11:07:00,75.4,58.6,0.00,NNW,338,2.7,4.3,56,0.00,,,0.00,WUHU216HW,2013-08-19 18:07:00,
2013-08-19 11:12:00,76.0,58.6,0.00,NNW,338,4.3,4.9,55,0.00,,,0.00,WUHU216HW,2013-08-19 18:12:00,
2013-08-19 11:17:00,76.3,58.4,0.00,NNW,338,2.5,4.9,54,0.00,,,0.00,WUHU216HW,2013-08-19 18:17:00,
2013-08-19 11:22:00,77.0,58.1,0.00,North,0,1.1,4.9,52,0.00,,,0.00,WUHU216HW,2013-08-19 18:22:00,
2013-08-19 11:27:00,77.6,57.0,0.00,NW,315,7.6,7.6,49,0.00,,,0.00,WUHU216HW,2013-08-19 18:27:00,
2013-08-19 11:32:00,77.9,57.9,0.00,West,270,0.4,7.6,50,0.00,,,0.00,WUHU216HW,2013-08-19 18:32:00,
2013-08-19 11:37:00,78.5,57.8,0.00,NNW,338,3.4,6.0,49,0.00,,,0.00,WUHU216HW,2013-08-19 18:37:00,
2013-08-19 11:42:00,78.8,56.9,0.00,NNW,338,4.9,6.0,47,0.00,,,0.00,WUHU216HW,2013-08-19 18:42:00,
2013-08-19 11:47:00,79.6,56.9,0.00,North,0,2.7,4.9,46,0.00,,,0.00,WUHU216HW,2013-08-19 18:47:00,
2013-08-19 11:52:00,79.7,55.8,0.00,NNW,338,4.3,6.5,44,0.00,,,0.00,WUHU216HW,2013-08-19 18:52:00,
2013-08-19 11:57:00,80.3,56.9,0.00,North,0,1.8,6.5,45,0.00,,,0.00,WUHU216HW,2013-08-19 18:57:00,
2013-08-19 12:02:00,81.0,57.0,0.00,ENE,68,2.9,5.1,44,0.00,,,0.00,WUHU216HW,2013-08-19 19:02:00,
2013-08-19 12:07:00,81.2,56.5,0.00,WNW,293,3.4,6.3,43,0.00,,,0.00,WUHU216HW,2013-08-19 19:07:00,
2013-08-19 12:12:00,81.4,56.7,0.00,NNW,338,4.7,6.3,43,0.00,,,0.00,WUHU216HW,2013-08-19 19:12:00,
2013-08-19 12:17:00,81.5,56.3,0.00,NW,315,3.4,5.8,42,0.00,,,0.00,WUHU216HW,2013-08-19 19:17:00,
2013-08-19 12:22:00,81.7,57.0,0.00,NW,315,4.0,10.5,43,0.00,,,0.00,WUHU216HW,2013-08-19 19:22:00,
2013-08-19 12:27:00,82.4,57.6,0.00,ESE,113,3.4,10.5,43,0.00,,,0.00,WUHU216HW,2013-08-19 19:27:00,
2013-08-19 12:32:00,82.8,57.3,0.00,NNW,338,2.5,4.9,42,0.00,,,0.00,WUHU216HW,2013-08-19 19:32:00,
2013-08-19 12:37:00,83.2,57.7,0.00,NNW,338,2.5,4.7,42,0.00,,,0.00,WUHU216HW,2013-08-19 19:37:00,
2013-08-19 12:42:00,83.5,57.4,0.00,NW,315,3.4,6.0,41,0.00,,,0.00,WUHU216HW,2013-08-19 19:42:00,
2013-08-19 12:47:00,83.7,58.1,0.00,SSE,158,0.9,6.0,42,0.00,,,0.00,WUHU216HW,2013-08-19 19:47:00,
2013-08-19 12:52:00,84.2,57.4,0.00,North,0,2.5,3.8,40,0.00,,,0.00,WUHU216HW,2013-08-19 19:52:00,
2013-08-19 12:57:00,84.6,57.8,0.00,North,0,1.1,3.8,40,0.00,,,0.00,WUHU216HW,2013-08-19 19:57:00,
2013-08-19 13:02:00,84.4,57.6,0.00,NW,315,3.1,5.4,40,0.00,,,0.00,WUHU216HW,2013-08-19 20:02:00,
2013-08-19 13:07:00,84.1,57.9,0.00,NNW,338,4.7,5.4,41,0.00,,,0.00,WUHU216HW,2013-08-19 20:07:00,
2013-08-19 13:12:00,84.6,57.8,0.00,WSW,248,3.1,7.6,40,0.00,,,0.00,WUHU216HW,2013-08-19 20:12:00,
2013-08-19 13:17:00,85.0,58.1,0.00,SW,225,2.2,7.6,40,0.00,,,0.00,WUHU216HW,2013-08-19 20:17:00,
2013-08-19 13:22:00,85.1,58.2,0.00,NW,315,3.4,4.5,40,0.00,,,0.00,WUHU216HW,2013-08-19 20:22:00,
2013-08-19 13:27:00,84.6,57.8,0.00,WSW,248,2.0,9.4,40,0.00,,,0.00,WUHU216HW,2013-08-19 20:27:00,
2013-08-19 13:32:00,85.3,57.6,0.00,NW,315,1.8,9.4,39,0.00,,,0.00,WUHU216HW,2013-08-19 20:32:00,
2013-08-19 13:37:00,85.7,58.0,0.00,WNW,293,5.4,5.4,39,0.00,,,0.00,WUHU216HW,2013-08-19 20:37:00,
2013-08-19 13:42:00,85.7,58.0,0.00,NW,315,2.5,5.4,39,0.00,,,0.00,WUHU216HW,2013-08-19 20:42:00,
2013-08-19 13:47:00,86.2,58.4,0.00,SW,225,1.3,4.3,39,0.00,,,0.00,WUHU216HW,2013-08-19 20:47:00,
2013-08-19 13:52:00,86.8,58.9,0.00,North,0,1.1,4.3,39,0.00,,,0.00,WUHU216HW,2013-08-19 20:52:00,
2013-08-19 13:57:00,86.8,58.9,0.00,NNW,338,4.3,4.3,39,0.00,,,0.00,WUHU216HW,2013-08-19 20:57:00,
2013-08-19 14:02:00,86.4,58.6,0.00,WSW,248,2.0,4.3,39,0.00,,,0.00,WUHU216HW,2013-08-19 21:02:00,
2013-08-19 14:07:00,86.4,58.6,0.00,NW,315,3.6,4.7,39,0.00,,,0.00,WUHU216HW,2013-08-19 21:07:00,
2013-08-19 14:12:00,86.2,59.9,0.00,North,0,2.0,6.9,41,0.00,,,0.00,WUHU216HW,2013-08-19 21:12:00,
2013-08-19 14:17:00,86.0,59.7,0.00,WNW,293,3.8,6.9,41,0.00,,,0.00,WUHU216HW,2013-08-19 21:17:00,
2013-08-19 14:22:00,86.2,58.4,0.00,North,0,0.9,7.4,39,0.00,,,0.00,WUHU216HW,2013-08-19 21:22:00,
2013-08-19 14:27:00,86.8,58.9,0.00,NNW,338,1.3,7.4,39,0.00,,,0.00,WUHU216HW,2013-08-19 21:27:00,
2013-08-19 14:32:00,86.9,59.9,0.00,North,0,2.7,4.0,40,0.00,,,0.00,WUHU216HW,2013-08-19 21:32:00,
2013-08-19 14:37:00,87.1,60.0,0.00,South,180,2.5,4.0,40,0.00,,,0.00,WUHU216HW,2013-08-19 21:37:00,
2013-08-19 14:42:00,87.1,60.0,0.00,North,0,2.0,3.1,40,0.00,,,0.00,WUHU216HW,2013-08-19 21:42:00,
2013-08-19 14:47:00,87.1,59.2,0.00,NNW,338,5.1,5.6,39,0.00,,,0.00,WUHU216HW,2013-08-19 21:47:00,
2013-08-19 14:52:00,87.3,60.2,0.00,NNW,338,1.1,5.6,40,0.00,,,0.00,WUHU216HW,2013-08-19 21:52:00,
2013-08-19 14:57:00,86.6,58.8,0.00,NNW,338,3.4,6.0,39,0.00,,,0.00,WUHU216HW,2013-08-19 21:57:00,
2013-08-19 15:02:00,86.4,58.6,0.00,NW,315,1.6,6.0,39,0.00,,,0.00,WUHU216HW,2013-08-19 22:02:00,
2013-08-19 15:07:00,86.4,58.6,0.00,NNW,338,5.4,5.4,39,0.00,,,0.00,WUHU216HW,2013-08-19 22:07:00,
2013-08-19 15:12:00,86.6,58.8,0.00,NNW,338,5.6,6.9,39,0.00,,,0.00,WUHU216HW,2013-08-19 22:12:00,
2013-08-19 15:17:00,86.8,58.1,0.00,West,270,2.5,6.9,38,0.00,,,0.00,WUHU216HW,2013-08-19 22:17:00,
2013-08-19 15:22:00,86.8,58.9,0.00,WNW,293,2.5,8.5,39,0.00,,,0.00,WUHU216HW,2013-08-19 22:22:00,
2013-08-19 15:27:00,86.4,57.8,0.00,North,0,3.1,8.5,38,0.00,,,0.00,WUHU216HW,2013-08-19 22:27:00,
2013-08-19 15:32:00,86.6,58.0,0.00,North,0,3.6,8.1,38,0.00,,,0.00,WUHU216HW,2013-08-19 22:32:00,
2013-08-19 15:37:00,86.2,57.6,0.00,NW,315,4.5,5.4,38,0.00,,,0.00,WUHU216HW,2013-08-19 22:37:00,
2013-08-19 15:42:00,86.0,58.2,0.00,West,270,2.2,5.4,39,0.00,,,0.00,WUHU216HW,2013-08-19 22:42:00,
2013-08-19 15:47:00,86.4,57.8,0.00,SSE,158,4.7,5.4,38,0.00,,,0.00,WUHU216HW,2013-08-19 22:47:00,
2013-08-19 15:52:00,86.0,57.4,0.00,NNW,338,3.4,4.7,38,0.00,,,0.00,WUHU216HW,2013-08-19 22:52:00,
2013-08-19 15:57:00,86.4,57.0,0.00,NNW,338,2.5,3.4,37,0.00,,,0.00,WUHU216HW,2013-08-19 22:57:00,
2013-08-19 16:02:00,86.4,57.0,0.00,East,90,2.9,2.9,37,0.00,,,0.00,WUHU216HW,2013-08-19 23:02:00,
2013-08-19 16:07:00,86.9,57.4,0.00,North,0,2.5,3.8,37,0.00,,,0.00,WUHU216HW,2013-08-19 23:07:00,
2013-08-19 16:12:00,86.4,57.0,0.00,North,0,1.8,5.8,37,0.00,,,0.00,WUHU216HW,2013-08-19 23:12:00,
2013-08-19 16:17:00,85.9,57.3,0.00,North,0,2.0,5.8,38,0.00,,,0.00,WUHU216HW,2013-08-19 23:17:00,
2013-08-19 16:22:00,85.7,57.2,0.00,NNW,338,5.1,6.0,38,0.00,,,0.00,WUHU216HW,2013-08-19 23:22:00,
2013-08-19 16:27:00,85.5,57.0,0.00,North,0,2.7,6.0,38,0.00,,,0.00,WUHU216HW,2013-08-19 23:27:00,
2013-08-19 16:32:00,85.5,57.0,0.00,North,0,2.2,3.8,38,0.00,,,0.00,WUHU216HW,2013-08-19 23:32:00,
2013-08-19 16:37:00,85.3,56.8,0.00,WNW,293,6.9,6.9,38,0.00,,,0.00,WUHU216HW,2013-08-19 23:37:00,
2013-08-19 16:42:00,85.0,57.2,0.00,North,0,1.6,6.9,39,0.00,,,0.00,WUHU216HW,2013-08-19 23:42:00,
2013-08-19 16:47:00,85.3,56.8,0.00,NNW,338,3.1,5.1,38,0.00,,,0.00,WUHU216HW,2013-08-19 23:47:00,
2013-08-19 16:52:00,85.1,56.6,0.00,North,0,2.2,4.7,38,0.00,,,0.00,WUHU216HW,2013-08-19 23:52:00,
2013-08-19 16:57:00,85.0,57.2,0.00,North,0,0.9,8.3,39,0.00,,,0.00,WUHU216HW,2013-08-19 23:57:00,
2013-08-19 17:02:00,85.0,57.2,0.00,NNW,338,3.4,8.3,39,0.00,,,0.00,WUHU216HW,2013-08-20 00:02:00,
2013-08-19 17:07:00,84.8,57.2,0.00,NNW,338,4.9,6.3,39,0.00,,,0.00,WUHU216HW,2013-08-20 00:07:00,
2013-08-19 17:12:00,84.1,57.2,0.00,West,270,4.7,6.3,40,0.00,,,0.00,WUHU216HW,2013-08-20 00:12:00,
2013-08-19 17:17:00,84.1,57.2,0.00,North,0,3.4,6.3,40,0.00,,,0.00,WUHU216HW,2013-08-20 00:17:00,
2013-08-19 17:22:00,84.2,57.4,0.00,NW,315,4.3,5.8,40,0.00,,,0.00,WUHU216HW,2013-08-20 00:22:00,
2013-08-19 17:27:00,83.5,57.4,0.00,North,0,1.3,7.6,41,0.00,,,0.00,WUHU216HW,2013-08-20 00:27:00,
2013-08-19 17:32:00,83.5,58.1,0.00,NW,315,1.8,7.6,42,0.00,,,0.00,WUHU216HW,2013-08-20 00:32:00,
2013-08-19 17:37:00,83.9,57.7,0.00,NW,315,0.9,4.5,41,0.00,,,0.00,WUHU216HW,2013-08-20 00:37:00,
2013-08-19 17:42:00,83.5,57.4,0.00,West,270,1.1,5.6,41,0.00,,,0.00,WUHU216HW,2013-08-20 00:42:00,
2013-08-19 17:47:00,83.5,58.1,0.00,West,270,2.5,5.6,42,0.00,,,0.00,WUHU216HW,2013-08-20 00:47:00,
2013-08-19 17:52:00,83.2,57.1,0.00,North,0,1.1,5.1,41,0.00,,,0.00,WUHU216HW,2013-08-20 00:52:00,
2013-08-19 17:57:00,83.0,56.9,0.00,WNW,293,2.9,5.6,41,0.00,,,0.00,WUHU216HW,2013-08-20 00:57:00,
2013-08-19 18:02:00,83.0,57.5,0.00,NW,315,2.9,5.6,42,0.00,,,0.00,WUHU216HW,2013-08-20 01:02:00,
2013-08-19 18:07:00,83.0,58.2,0.00,North,0,2.0,4.0,43,0.00,,,0.00,WUHU216HW,2013-08-20 01:07:00,
2013-08-19 18:12:00,82.8,58.0,0.00,NW,315,5.4,5.4,43,0.00,,,0.00,WUHU216HW,2013-08-20 01:12:00,
2013-08-19 18:17:00,82.1,58.0,0.00,North,0,0.7,5.4,44,0.00,,,0.00,WUHU216HW,2013-08-20 01:17:00,
2013-08-19 18:22:00,82.1,58.0,0.00,NNW,338,2.7,3.6,44,0.00,,,0.00,WUHU216HW,2013-08-20 01:22:00,
2013-08-19 18:27:00,81.9,57.8,0.00,NW,315,2.5,4.3,44,0.00,,,0.00,WUHU216HW,2013-08-20 01:27:00,
2013-08-19 18:32:00,81.7,57.0,0.00,North,0,2.5,4.3,43,0.00,,,0.00,WUHU216HW,2013-08-20 01:32:00,
2013-08-19 18:37:00,81.4,56.1,0.00,NNW,338,2.0,6.3,42,0.00,,,0.00,WUHU216HW,2013-08-20 01:37:00,
2013-08-19 18:42:00,81.5,56.3,0.00,WNW,293,3.6,6.3,42,0.00,,,0.00,WUHU216HW,2013-08-20 01:42:00,
2013-08-19 18:47:00,81.4,55.4,0.00,North,0,1.8,3.6,41,0.00,,,0.00,WUHU216HW,2013-08-20 01:47:00,
2013-08-19 18:52:00,81.2,55.9,0.00,NNW,338,0.7,4.9,42,0.00,,,0.00,WUHU216HW,2013-08-20 01:52:00,
2013-08-19 18:57:00,80.8,55.0,0.00,WNW,293,2.5,4.9,41,0.00,,,0.00,WUHU216HW,2013-08-20 01:57:00,
2013-08-19 19:02:00,80.6,54.2,0.00,NNW,338,7.4,7.4,40,0.00,,,0.00,WUHU216HW,2013-08-20 02:02:00,
2013-08-19 19:07:00,80.5,54.6,0.00,NNW,338,2.5,7.4,41,0.00,,,0.00,WUHU216HW,2013-08-20 02:07:00,
2013-08-19 19:12:00,80.3,54.5,0.00,West,270,2.5,5.4,41,0.00,,,0.00,WUHU216HW,2013-08-20 02:12:00,
2013-08-19 19:17:00,79.7,53.4,0.00,NW,315,5.4,5.4,40,0.00,,,0.00,WUHU216HW,2013-08-20 02:17:00,
2013-08-19 19:22:00,79.6,53.8,0.00,NW,315,2.5,5.4,41,0.00,,,0.00,WUHU216HW,2013-08-20 02:22:00,
2013-08-19 19:27:00,79.6,53.8,0.00,North,0,0.9,3.8,41,0.00,,,0.00,WUHU216HW,2013-08-20 02:27:00,
2013-08-19 19:32:00,79.2,54.1,0.00,NNW,338,2.5,3.8,42,0.00,,,0.00,WUHU216HW,2013-08-20 02:32:00,
2013-08-19 19:37:00,78.8,53.2,0.00,NNW,338,4.5,4.5,41,0.00,,,0.00,WUHU216HW,2013-08-20 02:37:00,
2013-08-19 19:42:00,78.7,53.0,0.00,NW,315,4.7,4.7,41,0.00,,,0.00,WUHU216HW,2013-08-20 02:42:00,
2013-08-19 19:47:00,78.5,52.8,0.00,North,0,2.0,4.7,41,0.00,,,0.00,WUHU216HW,2013-08-20 02:47:00,
2013-08-19 19:52:00,78.1,52.6,0.00,NNW,338,4.0,4.7,41,0.00,,,0.00,WUHU216HW,2013-08-20 02:52:00,
2013-08-19 19:57:00,78.1,53.1,0.00,NNE,23,1.1,4.7,42,0.00,,,0.00,WUHU216HW,2013-08-20 02:57:00,
2013-08-19 20:02:00,77.8,52.8,0.00,North,0,0.4,2.7,42,0.00,,,0.00,WUHU216HW,2013-08-20 03:02:00,
2013-08-19 20:07:00,77.6,52.7,0.00,NNW,338,0.4,1.3,42,0.00,,,0.00,WUHU216HW,2013-08-20 03:07:00,
2013-08-19 20:12:00,77.2,52.3,0.00,SSE,158,0.4,2.2,42,0.00,,,0.00,WUHU216HW,2013-08-20 03:12:00,
2013-08-19 20:17:00,77.0,52.2,0.00,NW,315,2.7,2.7,42,0.00,,,0.00,WUHU216HW,2013-08-20 03:17:00,
2013-08-19 20:22:00,77.0,52.2,0.00,NW,315,1.8,3.4,42,0.00,,,0.00,WUHU216HW,2013-08-20 03:22:00,
2013-08-19 20:27:00,76.9,53.2,0.00,NNW,338,3.1,3.4,44,0.00,,,0.00,WUHU216HW,2013-08-20 03:27:00,
2013-08-19 20:32:00,76.7,53.1,0.00,NNW,338,1.3,3.1,44,0.00,,,0.00,WUHU216HW,2013-08-20 03:32:00,
2013-08-19 20:37:00,76.7,53.1,0.00,NNW,338,1.8,3.1,44,0.00,,,0.00,WUHU216HW,2013-08-20 03:37:00,
2013-08-19 20:42:00,76.5,53.6,0.00,WNW,293,3.4,3.4,45,0.00,,,0.00,WUHU216HW,2013-08-20 03:42:00,
2013-08-19 20:47:00,76.3,52.7,0.00,ENE,68,0.9,3.4,44,0.00,,,0.00,WUHU216HW,2013-08-20 03:47:00,
2013-08-19 20:52:00,76.0,51.9,0.00,NNW,338,2.5,6.3,43,0.00,,,0.00,WUHU216HW,2013-08-20 03:52:00,
2013-08-19 20:57:00,76.1,51.9,0.00,NW,315,2.7,6.3,43,0.00,,,0.00,WUHU216HW,2013-08-20 03:57:00,
2013-08-19 21:01:00,76.0,53.0,0.00,NW,315,4.0,4.3,45,0.00,,,0.00,WUHU216HW,2013-08-20 04:01:00,
2013-08-19 21:03:00,76.0,53.6,0.00,NW,315,5.4,5.4,46,0.00,,,0.00,WUHU216HW,2013-08-20 04:03:00,
2013-08-19 21:08:00,76.0,53.6,0.00,North,0,2.5,5.4,46,0.00,,,0.00,WUHU216HW,2013-08-20 04:08:00,
2013-08-19 21:13:00,75.8,53.5,0.00,NW,315,0.9,3.4,46,0.00,,,0.00,WUHU216HW,2013-08-20 04:13:00,
2013-08-19 21:18:00,75.6,53.3,0.00,North,0,4.0,4.0,46,0.00,,,0.00,WUHU216HW,2013-08-20 04:18:00,
2013-08-19 21:23:00,75.4,53.2,0.00,NNW,338,2.2,4.0,46,0.00,,,0.00,WUHU216HW,2013-08-20 04:23:00,
2013-08-19 21:28:00,75.2,53.7,0.00,NNW,338,1.8,2.5,47,0.00,,,0.00,WUHU216HW,2013-08-20 04:28:00,
2013-08-19 21:33:00,75.1,54.0,0.00,NW,315,3.8,4.7,48,0.00,,,0.00,WUHU216HW,2013-08-20 04:33:00,
2013-08-19 21:38:00,74.9,54.5,0.00,NNW,338,2.5,4.7,49,0.00,,,0.00,WUHU216HW,2013-08-20 04:38:00,
2013-08-19 21:43:00,74.7,54.3,0.00,NNW,338,0.0,2.5,49,0.00,,,0.00,WUHU216HW,2013-08-20 04:43:00,
2013-08-19 21:48:00,74.2,54.9,0.00,SE,135,0.9,2.5,51,0.00,,,0.00,WUHU216HW,2013-08-20 04:48:00,
2013-08-19 21:53:00,73.8,54.6,0.00,NE,45,0.0,1.1,51,0.00,,,0.00,WUHU216HW,2013-08-20 04:53:00,
2013-08-19 21:58:00,73.4,54.6,0.00,SSE,158,0.9,1.1,52,0.00,,,0.00,WUHU216HW,2013-08-20 04:58:00,
2013-08-19 22:03:00,73.4,55.6,0.00,NNW,338,0.7,2.7,54,0.00,,,0.00,WUHU216HW,2013-08-20 05:03:00,
2013-08-19 22:08:00,73.3,55.5,0.00,NNW,338,0.9,2.9,54,0.00,,,0.00,WUHU216HW,2013-08-20 05:08:00,
2013-08-19 22:13:00,73.1,55.8,0.00,North,0,2.2,3.4,55,0.00,,,0.00,WUHU216HW,2013-08-20 05:13:00,
2013-08-19 22:18:00,73.1,55.8,0.00,North,0,0.4,3.4,55,0.00,,,0.00,WUHU216HW,2013-08-20 05:18:00,
2013-08-19 22:23:00,72.9,55.7,0.00,WNW,293,0.9,3.4,55,0.00,,,0.00,WUHU216HW,2013-08-20 05:23:00,
2013-08-19 22:28:00,72.7,55.5,0.00,NNW,338,0.2,1.6,55,0.00,,,0.00,WUHU216HW,2013-08-20 05:28:00,
2013-08-19 22:33:00,72.5,55.4,0.00,NNW,338,3.1,4.3,55,0.00,,,0.00,WUHU216HW,2013-08-20 05:33:00,
2013-08-19 22:38:00,72.2,55.5,0.00,West,270,4.0,4.3,56,0.00,,,0.00,WUHU216HW,2013-08-20 05:38:00,
2013-08-19 22:43:00,72.0,55.4,0.00,North,0,0.2,4.3,56,0.00,,,0.00,WUHU216HW,2013-08-20 05:43:00,
2013-08-19 22:48:00,71.8,55.2,0.00,NNW,338,2.2,4.5,56,0.00,,,0.00,WUHU216HW,2013-08-20 05:48:00,
2013-08-19 22:53:00,71.5,54.9,0.00,WSW,248,3.4,4.5,56,0.00,,,0.00,WUHU216HW,2013-08-20 05:53:00,
2013-08-19 22:58:00,70.9,54.4,0.00,WNW,293,4.3,5.4,56,0.00,,,0.00,WUHU216HW,2013-08-20 05:58:00,
2013-08-19 23:03:00,70.7,54.3,0.00,NNW,338,2.0,5.4,56,0.00,,,0.00,WUHU216HW,2013-08-20 06:03:00,
2013-08-19 23:08:00,70.4,53.9,0.00,NNW,338,1.1,5.4,56,0.00,,,0.00,WUHU216HW,2013-08-20 06:08:00,
2013-08-19 23:13:00,70.2,54.3,0.00,North,0,1.6,6.3,57,0.00,,,0.00,WUHU216HW,2013-08-20 06:13:00,
2013-08-19 23:18:00,70.0,54.1,0.00,North,0,1.3,6.3,57,0.00,,,0.00,WUHU216HW,2013-08-20 06:18:00,
2013-08-19 23:23:00,69.8,53.9,0.00,WNW,293,1.1,5.8,57,0.00,,,0.00,WUHU216HW,2013-08-20 06:23:00,
2013-08-19 23:28:00,69.8,54.5,0.00,North,0,0.2,4.0,58,0.00,,,0.00,WUHU216HW,2013-08-20 06:28:00,
2013-08-19 23:33:00,69.5,54.1,0.00,NNW,338,2.9,6.7,58,0.00,,,0.00,WUHU216HW,2013-08-20 06:33:00,
2013-08-19 23:38:00,69.5,54.1,0.00,East,90,0.4,6.7,58,0.00,,,0.00,WUHU216HW,2013-08-20 06:38:00,
2013-08-19 23:43:00,69.5,54.5,0.00,NNE,23,0.9,3.1,59,0.00,,,0.00,WUHU216HW,2013-08-20 06:43:00,
2013-08-19 23:48:00,69.3,54.4,0.00,WNW,293,1.1,3.1,59,0.00,,,0.00,WUHU216HW,2013-08-20 06:48:00,
2013-08-19 23:53:00,69.1,54.7,0.00,NNW,338,2.0,4.3,60,0.00,,,0.00,WUHU216HW,2013-08-20 06:53:00,
2013-08-19 23:58:00,68.8,54.8,0.00,NNE,23,0.2,4.7,61,0.00,,,0.00,WUHU216HW,2013-08-20 06:58:00,